一网星座-0367星 (ONEWEB-0367 )

导读 | 星芒AI

ONEWEB-0367 是 OneWeb 卫星星座计划中的一颗低轨通信卫星,旨在为全球提供高速互联网服务。该卫星于2023年发射,运行在约1200公里的近地轨道,采用先进的通信技术,支持高带宽和低延迟传输。OneWeb 项目由多个卫星批次组成,ONEWEB-0367 属于第三批次,用于扩展其全球覆盖范围,特别是在偏远和网络基础设施薄弱的地区。该卫星系统致力于实现全球无缝连接,促进数字包容性。

基本信息
目录编号:
49293
目录名称:
ONEWEB-0367
国际标识:
2021-090Q
轨道中心:
EARTH
卫星名称:
一网星座-0367星
卫星全名:
一网星座-0367星 (ONEWEB-0367 )
卫星状态:
在轨 (已飞行1477 天)
发射日期:
2021-10-14 UTC
国别 :
英国 (GB)
星等 :
--
轨道信息
数据来源 国际轨道数据 AOE轨道数据
星历时间 2025-10-30T02:52:48+0800
10小时前
查看轨道信息
2025-10-26T23:00:00+0800
3天前
查看轨道信息
半长轴 7559.914km 7559.912km
偏心率 0.0002073 0.0002131
轨道倾角 87.920° 87.920°
近地点辐角 94.187° 97.888°
升交点赤经 320.385° 321.016°
平近点角 265.950° 357.860°
近地点 1180.211km 1180.165km
远地点 1183.347km 1183.389km
周期 109.027分钟 109.027分钟
每日圈数 13.20771 13.207714
详细信息
平衡模式:
三轴稳定
覆盖范围:
全球
运营商:
一网卫星公司
运营商所在国:
英国
制造商(研发单位):
一网卫星公司
制造商所在国:
英国
使用方式:
暂无
卫星简介
OneWeb卫星网络由648颗重约125公斤的微型卫星组成,运行在1200公里的轨道上。 每颗卫星都能够提供至少每秒8千兆位的吞吐量,以使用其高吞吐量的Ku频段有效载荷为家庭和移动平台提供互联网接入。该卫星仍在工作。
2D轨道图
3D轨道图
轨道高度分析图
轨道倾角分析图
轨道综合分析图
查看轨道综合分析图